Location: Unspecified
(42.9300°N, 71.1866°W)
Time: 17:50:11
(UTC-04:00)

GENESIS II - Visible Passes

Search period start: 28 April 2016 00:00
Search period end: 08 May 2016 00:00
Orbit: 484 x 557 km, 64.5° (Epoch: 28 April)

Date Brightness Start Highest point End Pass type
(mag) Time Alt. Az. Time Alt. Az. Time Alt. Az.
28 Apr 4.6 03:28:03 52° SSE 03:28:38 58° ESE 03:32:42 10° NE visible
28 Apr 6.2 05:03:52 10° W 05:06:47 19° NW 05:09:44 10° N visible
29 Apr 4.4 03:14:15 61° SE 03:14:22 62° ESE 03:18:27 10° NE visible
29 Apr 6.3 04:49:43 10° W 04:52:33 18° NW 04:55:26 10° N visible
30 Apr 4.6 03:00:24 63° E 03:00:24 63° E 03:04:12 10° NE visible
30 Apr 6.4 04:35:34 10° W 04:38:19 17° NW 04:41:06 10° N visible
01 May 4.8 02:46:29 57° ENE 02:46:29 57° ENE 02:49:56 10° NE visible
01 May 6.4 04:21:34 10° WNW 04:24:06 16° NW 04:26:46 10° N visible
02 May 5.1 02:32:32 49° NE 02:32:32 49° NE 02:35:41 10° NE visible
02 May 6.5 04:07:36 11° WNW 04:09:52 16° NW 04:12:27 10° N visible
03 May 5.4 02:18:32 43° NE 02:18:32 43° NE 02:21:26 10° NE visible
03 May 6.6 03:53:36 12° WNW 03:55:37 15° NW 03:58:06 10° N visible
04 May 5.6 02:04:30 39° NE 02:04:30 39° NE 02:07:10 10° NE visible
04 May 6.6 03:39:34 12° WNW 03:41:23 15° NW 03:43:46 10° N visible
05 May 5.8 01:50:24 35° NE 01:50:24 35° NE 01:52:53 10° NE visible
05 May 6.7 03:25:28 12° WNW 03:27:08 14° NW 03:29:24 10° N visible
06 May 6.0 01:36:17 33° NNE 01:36:17 33° NNE 01:38:37 10° NNE visible
06 May 6.8 03:11:20 12° WNW 03:12:54 14° NW 03:15:02 10° N visible
07 May 6.1 01:22:06 31° NNE 01:22:06 31° NNE 01:24:21 10° NNE visible
07 May 6.8 02:57:09 11° WNW 02:58:39 13° NW 03:00:40 10° N visible
